TRA861G EHEH-ENGM

Flight info

Callsign TRA861G
Flight time 1h 45m
Altitude 37000
Route VELNI Y869 SUMOP L179 MEVEL Y850 BASUM M170 STADE DCT AMRAK DCT NERDO DCT PIPEX M609 RIPAM
Aircraft B738/M-SDE2E3FGHIRWXY/LB1

Departure

Time 2026-04-30 13:20
Airport Eindhoven Airport (EHEH)

Arrival

Time 2026-04-30 15:06
Airport Oslo-Gardermoen International Airport (ENGM)
Time Latitude Longitude Altitude Speed Heading
2026-04-30 12:45 51.45858 5.39051 63 ft 0 kts 125°
2026-04-30 13:06 51.45876 5.39009 63 ft 4 kts 125°
2026-04-30 13:06 51.45890 5.38979 69 ft 4 kts 142°
2026-04-30 13:06 51.45911 5.38970 65 ft 4 kts 205°
2026-04-30 13:06 51.45927 5.38985 65 ft 1 kts 215°
2026-04-30 13:07 51.45930 5.38988 65 ft 0 kts 215°
2026-04-30 13:10 51.45921 5.38979 67 ft 3 kts 215°
2026-04-30 13:10 51.45899 5.38954 69 ft 5 kts 215°
2026-04-30 13:10 51.45867 5.38918 71 ft 6 kts 215°
2026-04-30 13:11 51.45834 5.38881 65 ft 6 kts 214°
2026-04-30 13:11 51.45802 5.38844 70 ft 6 kts 220°
2026-04-30 13:11 51.45792 5.38786 70 ft 6 kts 282°
2026-04-30 13:11 51.45812 5.38733 74 ft 6 kts 304°
2026-04-30 13:12 51.45835 5.38682 67 ft 6 kts 306°
2026-04-30 13:12 51.45863 5.38617 65 ft 8 kts 305°
2026-04-30 13:12 51.45901 5.38531 68 ft 10 kts 306°
2026-04-30 13:13 51.45992 5.38326 69 ft 10 kts 300°
2026-04-30 13:13 51.45965 5.38239 71 ft 10 kts 216°
2026-04-30 13:13 51.45842 5.38101 72 ft 12 kts 215°
2026-04-30 13:14 51.45771 5.38021 74 ft 13 kts 215°
2026-04-30 13:14 51.45694 5.37935 69 ft 14 kts 215°
2026-04-30 13:14 51.45536 5.37756 71 ft 13 kts 215°
2026-04-30 13:15 51.45456 5.37667 74 ft 15 kts 215°
2026-04-30 13:15 51.45244 5.37430 71 ft 21 kts 214°
2026-04-30 13:15 51.45125 5.37296 69 ft 21 kts 215°
2026-04-30 13:16 51.45009 5.37165 70 ft 20 kts 214°
2026-04-30 13:16 51.44896 5.37039 66 ft 19 kts 215°
2026-04-30 13:16 51.44786 5.36917 65 ft 19 kts 214°
2026-04-30 13:17 51.44575 5.36680 70 ft 20 kts 215°
2026-04-30 13:17 51.44450 5.36542 68 ft 24 kts 215°
2026-04-30 13:17 51.44228 5.36292 72 ft 23 kts 214°
2026-04-30 13:18 51.44075 5.36121 70 ft 15 kts 215°
2026-04-30 13:18 51.43938 5.36193 73 ft 9 kts 122°
2026-04-30 13:18 51.43948 5.36259 71 ft 6 kts 33°
2026-04-30 13:19 51.43949 5.36259 71 ft 0 kts 32°
2026-04-30 13:19 51.43961 5.36272 70 ft 7 kts 34°
2026-04-30 13:19 51.44155 5.36491 73 ft 68 kts 34°
2026-04-30 13:20 51.44728 5.37134 72 ft 130 kts 36°
2026-04-30 13:20 51.45563 5.38054 390 ft 150 kts 41°
2026-04-30 13:20 51.46468 5.39066 868 ft 168 kts 43°
2026-04-30 13:20 51.47451 5.40175 1519 ft 175 kts 42°
2026-04-30 13:21 51.48491 5.41351 2042 ft 196 kts 41°
2026-04-30 13:21 51.49650 5.42662 2393 ft 213 kts 41°
2026-04-30 13:21 51.50840 5.44115 2947 ft 217 kts 52°
2026-04-30 13:22 51.51340 5.48540 4483 ft 204 kts 108°
2026-04-30 13:22 51.50902 5.50676 5291 ft 204 kts 111°
2026-04-30 13:22 51.49978 5.55088 6706 ft 214 kts 110°
2026-04-30 13:23 51.49503 5.57384 7375 ft 219 kts 109°
2026-04-30 13:23 51.48747 5.62599 8188 ft 255 kts 103°
2026-04-30 13:24 51.48469 5.67400 9427 ft 264 kts 85°
2026-04-30 13:24 51.48971 5.73315 10726 ft 279 kts 84°
2026-04-30 13:25 51.49531 5.79994 11062 ft 324 kts 84°
2026-04-30 13:25 51.50152 5.87598 11507 ft 358 kts 84°
2026-04-30 13:26 51.51115 5.99695 13364 ft 369 kts 84°
2026-04-30 13:26 51.51763 6.07965 14602 ft 377 kts 84°
2026-04-30 13:27 51.52414 6.16368 15818 ft 383 kts 84°
2026-04-30 13:28 51.53626 6.29212 17608 ft 393 kts 80°
2026-04-30 13:28 51.54617 6.37948 18704 ft 401 kts 81°
2026-04-30 13:28 51.55102 6.42379 19198 ft 404 kts 81°
2026-04-30 13:29 51.56058 6.51347 20189 ft 410 kts 81°
2026-04-30 13:29 51.57804 6.60041 21134 ft 417 kts 64°
2026-04-30 13:30 51.62896 6.71577 22508 ft 427 kts 54°
2026-04-30 13:31 51.66473 6.79275 23407 ft 431 kts 54°
2026-04-30 13:31 51.71845 6.90994 24592 ft 437 kts 54°
2026-04-30 13:32 51.75470 6.98924 25282 ft 441 kts 54°
2026-04-30 13:32 51.79121 7.06939 25968 ft 445 kts 54°
2026-04-30 13:33 51.82800 7.15034 26595 ft 449 kts 54°
2026-04-30 13:33 51.86580 7.23071 27267 ft 451 kts 49°
2026-04-30 13:34 51.88733 7.26780 27541 ft 453 kts 47°
2026-04-30 13:34 51.95324 7.37653 28957 ft 447 kts 47°
2026-04-30 13:35 51.97481 7.41273 29368 ft 446 kts 47°
2026-04-30 13:35 52.01769 7.48560 30148 ft 445 kts 47°
2026-04-30 13:36 52.06020 7.55824 30955 ft 443 kts 47°
2026-04-30 13:36 52.08143 7.59458 31220 ft 444 kts 47°
2026-04-30 13:36 52.12420 7.66684 31897 ft 442 kts 46°
2026-04-30 13:37 52.14578 7.70236 32272 ft 440 kts 46°
2026-04-30 13:37 52.18870 7.77346 32912 ft 439 kts 47°
2026-04-30 13:38 52.23082 7.84524 33578 ft 437 kts 47°
2026-04-30 13:38 52.25147 7.88076 33892 ft 437 kts 47°
2026-04-30 13:38 52.29322 7.95263 34528 ft 435 kts 47°
2026-04-30 13:39 52.33450 8.02373 35221 ft 429 kts 47°
2026-04-30 13:39 52.37566 8.09477 35649 ft 430 kts 47°
2026-04-30 13:40 52.39620 8.13030 35929 ft 429 kts 47°
2026-04-30 13:40 52.41669 8.16578 36219 ft 428 kts 47°
2026-04-30 13:40 52.43710 8.20118 36471 ft 427 kts 47°
2026-04-30 13:40 52.45747 8.23658 36681 ft 427 kts 46°
2026-04-30 13:41 52.47785 8.27203 36894 ft 427 kts 46°
2026-04-30 13:41 52.49825 8.30758 37058 ft 428 kts 46°
2026-04-30 13:41 52.51870 8.34324 37232 ft 429 kts 46°
2026-04-30 13:41 52.53910 8.37888 37457 ft 428 kts 46°
2026-04-30 13:42 52.55958 8.41470 37440 ft 431 kts 46°
2026-04-30 13:42 52.62083 8.52203 37444 ft 427 kts 46°
2026-04-30 13:43 52.66126 8.59312 37453 ft 424 kts 46°
2026-04-30 13:43 52.70144 8.66401 37442 ft 422 kts 46°
2026-04-30 13:44 52.74143 8.73473 37454 ft 421 kts 46°
2026-04-30 13:44 52.78438 8.79995 37456 ft 420 kts 34°
2026-04-30 13:45 52.86132 8.86993 37462 ft 422 kts 28°
2026-04-30 13:46 52.91330 8.91585 37459 ft 425 kts 28°
2026-04-30 13:46 52.96542 8.96253 37455 ft 427 kts 28°
2026-04-30 13:47 53.01765 9.00966 37461 ft 428 kts 28°
2026-04-30 13:47 53.04776 9.03693 37457 ft 429 kts 28°
2026-04-30 13:48 53.07993 9.06610 37460 ft 430 kts 28°
2026-04-30 13:48 53.12414 9.10627 37457 ft 430 kts 28°
2026-04-30 13:49 53.16188 9.14063 37459 ft 430 kts 29°
2026-04-30 13:49 53.21463 9.18877 37463 ft 430 kts 29°
2026-04-30 13:50 53.26667 9.23641 37465 ft 429 kts 29°
2026-04-30 13:50 53.34510 9.30844 37470 ft 428 kts 29°
2026-04-30 13:51 53.39726 9.35652 37448 ft 427 kts 28°
2026-04-30 13:51 53.44922 9.40454 37470 ft 426 kts 28°
2026-04-30 13:52 53.50302 9.44587 37479 ft 426 kts 17°
2026-04-30 13:52 53.56128 9.46336 37478 ft 426 kts
2026-04-30 13:53 53.62016 9.47561 37465 ft 426 kts
2026-04-30 13:53 53.67910 9.48815 37467 ft 427 kts
2026-04-30 13:54 53.73799 9.50114 37468 ft 427 kts
2026-04-30 13:54 53.79689 9.51433 37462 ft 428 kts
2026-04-30 13:55 53.85592 9.52763 37459 ft 428 kts
2026-04-30 13:55 53.91506 9.54098 37460 ft 429 kts
2026-04-30 13:56 53.97434 9.55440 37466 ft 430 kts
2026-04-30 13:56 54.03370 9.56786 37461 ft 431 kts
2026-04-30 13:57 54.09318 9.58140 37460 ft 431 kts
2026-04-30 13:57 54.15266 9.59498 37473 ft 431 kts
2026-04-30 13:58 54.24191 9.61542 37482 ft 431 kts
2026-04-30 13:59 54.30137 9.62909 37482 ft 431 kts
2026-04-30 13:59 54.36092 9.64282 37483 ft 431 kts
2026-04-30 14:00 54.41996 9.65647 37474 ft 431 kts
2026-04-30 14:00 54.50917 9.67718 37482 ft 431 kts
2026-04-30 14:01 54.56868 9.69104 37479 ft 432 kts
2026-04-30 14:01 54.62819 9.70495 37476 ft 432 kts
2026-04-30 14:02 54.68785 9.71893 37471 ft 432 kts
2026-04-30 14:02 54.74748 9.73295 37468 ft 433 kts
2026-04-30 14:03 54.80717 9.74697 37466 ft 433 kts
2026-04-30 14:03 54.86721 9.74613 37494 ft 432 kts 355°
2026-04-30 14:04 54.92715 9.73583 37487 ft 433 kts 354°
2026-04-30 14:04 54.98710 9.72554 37482 ft 433 kts 354°
2026-04-30 14:05 55.04706 9.71570 37480 ft 433 kts 355°
2026-04-30 14:05 55.10697 9.70609 37477 ft 432 kts 355°
2026-04-30 14:06 55.19687 9.69172 37473 ft 432 kts 354°
2026-04-30 14:07 55.28675 9.67727 37466 ft 432 kts 354°
2026-04-30 14:08 55.37657 9.66276 37461 ft 432 kts 354°
2026-04-30 14:08 55.46646 9.64816 37459 ft 432 kts 354°
2026-04-30 14:09 55.52630 9.63841 37456 ft 433 kts 354°
2026-04-30 14:10 55.61599 9.62374 37460 ft 433 kts 354°
2026-04-30 14:10 55.67606 9.61388 37456 ft 434 kts 354°
2026-04-30 14:11 55.73613 9.60398 37454 ft 434 kts 354°
2026-04-30 14:11 55.79626 9.59405 37438 ft 434 kts 354°
2026-04-30 14:12 55.84631 9.58576 37449 ft 434 kts 354°
2026-04-30 14:12 55.90650 9.57576 37455 ft 435 kts 354°
2026-04-30 14:13 55.96682 9.56570 37456 ft 436 kts 354°
2026-04-30 14:13 56.02727 9.55559 37459 ft 437 kts 354°
2026-04-30 14:14 56.08780 9.54544 37455 ft 437 kts 354°
2026-04-30 14:14 56.14836 9.53525 37462 ft 437 kts 354°
2026-04-30 14:15 56.20888 9.52504 37456 ft 437 kts 354°
2026-04-30 14:15 56.26947 9.51478 37455 ft 437 kts 354°
2026-04-30 14:16 56.33003 9.50449 37461 ft 437 kts 354°
2026-04-30 14:16 56.39055 9.49418 37453 ft 437 kts 354°
2026-04-30 14:17 56.45108 9.48383 37464 ft 437 kts 354°
2026-04-30 14:17 56.51162 9.47344 37468 ft 437 kts 353°
2026-04-30 14:18 56.57214 9.46303 37459 ft 437 kts 354°
2026-04-30 14:18 56.66287 9.44736 37458 ft 437 kts 354°
2026-04-30 14:19 56.75354 9.43162 37463 ft 436 kts 354°
2026-04-30 14:20 56.81400 9.42108 37466 ft 436 kts 353°
2026-04-30 14:20 56.90474 9.40520 37462 ft 437 kts 353°
2026-04-30 14:21 56.96526 9.39457 37465 ft 437 kts 353°
2026-04-30 14:22 57.05616 9.37853 37466 ft 438 kts 353°
2026-04-30 14:22 57.14666 9.36249 37458 ft 438 kts 353°
2026-04-30 14:23 57.26797 9.34085 37457 ft 438 kts 353°
2026-04-30 14:24 57.35896 9.32454 37466 ft 438 kts 353°
2026-04-30 14:25 57.48018 9.30266 37450 ft 437 kts 353°
2026-04-30 14:26 57.57087 9.28621 37448 ft 436 kts 353°
2026-04-30 14:27 57.66134 9.26971 37442 ft 435 kts 353°
2026-04-30 14:27 57.72151 9.25869 37421 ft 434 kts 353°
2026-04-30 14:28 57.81161 9.24212 37398 ft 434 kts 353°
2026-04-30 14:28 57.87165 9.23103 37416 ft 433 kts 353°
2026-04-30 14:29 57.99178 9.20840 37406 ft 434 kts 353°
2026-04-30 14:31 58.14166 9.17979 37400 ft 434 kts 353°
2026-04-30 14:31 58.23204 9.16245 37386 ft 436 kts 353°
2026-04-30 14:32 58.32289 9.14492 37378 ft 439 kts 353°
2026-04-30 14:33 58.38375 9.13313 37372 ft 440 kts 353°
2026-04-30 14:33 58.47524 9.11532 37372 ft 441 kts 353°
2026-04-30 14:34 58.53633 9.10338 37364 ft 441 kts 353°
2026-04-30 14:34 58.59744 9.09140 37295 ft 442 kts 353°
2026-04-30 14:35 58.65865 9.07935 36739 ft 439 kts 353°
2026-04-30 14:35 58.68897 9.07337 36477 ft 437 kts 353°
2026-04-30 14:35 58.71922 9.06739 36210 ft 438 kts 353°
2026-04-30 14:36 58.74955 9.06138 35968 ft 438 kts 353°
2026-04-30 14:36 58.77984 9.05537 35722 ft 438 kts 353°
2026-04-30 14:36 58.81016 9.05031 35464 ft 438 kts 359°
2026-04-30 14:36 58.84041 9.05751 35204 ft 441 kts 14°
2026-04-30 14:37 58.86916 9.07838 34975 ft 443 kts 26°
2026-04-30 14:37 58.89489 9.11140 34734 ft 446 kts 36°
2026-04-30 14:37 58.91900 9.14894 34117 ft 446 kts 37°
2026-04-30 14:37 58.94301 9.18710 33423 ft 445 kts 37°
2026-04-30 14:38 58.96697 9.22512 32665 ft 445 kts 37°
2026-04-30 14:38 58.99099 9.26289 31917 ft 446 kts 37°
2026-04-30 14:38 59.01523 9.30071 31135 ft 447 kts 36°
2026-04-30 14:38 59.03954 9.33848 30324 ft 449 kts 36°
2026-04-30 14:39 59.06367 9.37591 29356 ft 450 kts 36°
2026-04-30 14:39 59.08810 9.41386 28439 ft 450 kts 36°
2026-04-30 14:39 59.11256 9.45195 27475 ft 451 kts 36°
2026-04-30 14:40 59.16122 9.52801 26425 ft 435 kts 36°
2026-04-30 14:40 59.18446 9.56444 26220 ft 422 kts 36°
2026-04-30 14:40 59.20775 9.59776 25983 ft 409 kts 31°
2026-04-30 14:40 59.23117 9.62748 25805 ft 396 kts 30°
2026-04-30 14:41 59.25418 9.65582 25630 ft 385 kts 30°
2026-04-30 14:41 59.27646 9.68370 25463 ft 375 kts 30°
2026-04-30 14:41 59.29801 9.71124 25313 ft 365 kts 30°
2026-04-30 14:41 59.31893 9.73819 25161 ft 355 kts 30°
2026-04-30 14:42 59.34069 9.75917 24879 ft 345 kts 14°
2026-04-30 14:42 59.36361 9.77170 24580 ft 341 kts 12°
2026-04-30 14:42 59.38645 9.78373 24231 ft 339 kts 12°
2026-04-30 14:42 59.40916 9.79579 23878 ft 337 kts 12°
2026-04-30 14:43 59.43174 9.80797 23473 ft 336 kts 13°
2026-04-30 14:43 59.45419 9.82026 23086 ft 334 kts 13°
2026-04-30 14:43 59.47643 9.83255 22719 ft 331 kts 13°
2026-04-30 14:43 59.49850 9.84484 22367 ft 329 kts 13°
2026-04-30 14:44 59.52045 9.85709 22034 ft 327 kts 13°
2026-04-30 14:44 59.54227 9.86931 21687 ft 325 kts 13°
2026-04-30 14:44 59.56393 9.88145 21346 ft 323 kts 13°
2026-04-30 14:44 59.58549 9.89356 20994 ft 321 kts 13°
2026-04-30 14:45 59.60694 9.90562 20658 ft 320 kts 13°
2026-04-30 14:45 59.62832 9.91765 20250 ft 320 kts 13°
2026-04-30 14:45 59.64956 9.92963 20034 ft 316 kts 13°
2026-04-30 14:45 59.67076 9.94155 19791 ft 319 kts 13°
2026-04-30 14:46 59.69218 9.95351 19555 ft 319 kts 13°
2026-04-30 14:46 59.71354 9.96543 19240 ft 318 kts 13°
2026-04-30 14:46 59.73477 9.97730 18923 ft 316 kts 13°
2026-04-30 14:46 59.74878 9.98515 18704 ft 316 kts 13°
2026-04-30 14:47 59.77700 10.00097 18236 ft 314 kts 13°
2026-04-30 14:47 59.79802 10.01278 17893 ft 313 kts 13°
2026-04-30 14:47 59.81894 10.02455 17545 ft 312 kts 13°
2026-04-30 14:47 59.83977 10.03628 17211 ft 311 kts 13°
2026-04-30 14:48 59.86051 10.04798 16875 ft 309 kts 13°
2026-04-30 14:48 59.88117 10.05964 16551 ft 308 kts 13°
2026-04-30 14:48 59.90172 10.07126 16244 ft 306 kts 13°
2026-04-30 14:48 59.92216 10.08283 15920 ft 305 kts 13°
2026-04-30 14:49 59.94254 10.09439 15599 ft 304 kts 13°
2026-04-30 14:49 59.96288 10.10602 15282 ft 303 kts 13°
2026-04-30 14:49 59.98314 10.11766 14959 ft 303 kts 13°
2026-04-30 14:49 60.00311 10.12915 14641 ft 302 kts 13°
2026-04-30 14:50 60.04349 10.15240 13988 ft 302 kts 13°
2026-04-30 14:50 60.06365 10.16403 13633 ft 301 kts 13°
2026-04-30 14:51 60.10380 10.18722 12977 ft 299 kts 13°
2026-04-30 14:51 60.12378 10.19879 12655 ft 298 kts 13°
2026-04-30 14:51 60.16342 10.22177 12114 ft 294 kts 13°
2026-04-30 14:52 60.18308 10.23317 11899 ft 294 kts 13°
2026-04-30 14:52 60.22255 10.25609 11464 ft 296 kts 13°
2026-04-30 14:52 60.24232 10.26760 11235 ft 295 kts 13°
2026-04-30 14:53 60.28168 10.29055 10803 ft 294 kts 13°
2026-04-30 14:53 60.30129 10.30200 10588 ft 292 kts 13°
2026-04-30 14:54 60.33952 10.32623 10134 ft 285 kts 19°
2026-04-30 14:54 60.37501 10.35936 9684 ft 276 kts 21°
2026-04-30 14:55 60.40975 10.39153 9289 ft 273 kts 20°
2026-04-30 14:55 60.42695 10.40722 9069 ft 269 kts 20°
2026-04-30 14:55 60.45849 10.44525 8653 ft 269 kts 51°
2026-04-30 14:56 60.46666 10.51730 8311 ft 268 kts 88°
2026-04-30 14:56 60.46650 10.59266 7901 ft 268 kts 89°
2026-04-30 14:57 60.46637 10.63063 7534 ft 275 kts 89°
2026-04-30 14:57 60.46628 10.70862 6983 ft 274 kts 88°
2026-04-30 14:58 60.46625 10.78508 6563 ft 269 kts 89°
2026-04-30 14:58 60.46626 10.82272 6346 ft 266 kts 88°
2026-04-30 14:58 60.46626 10.89645 5958 ft 258 kts 89°
2026-04-30 14:59 60.46626 10.96818 5574 ft 252 kts 89°
2026-04-30 15:00 60.46534 11.07314 5014 ft 246 kts 103°
2026-04-30 15:00 60.44557 11.12545 4679 ft 229 kts 138°
2026-04-30 15:01 60.42325 11.16884 4290 ft 218 kts 138°
2026-04-30 15:01 60.41601 11.18287 4188 ft 217 kts 140°
2026-04-30 15:01 60.38475 11.18880 3822 ft 206 kts 203°
2026-04-30 15:02 60.37574 11.18296 3693 ft 205 kts 197°
2026-04-30 15:02 60.36201 11.17572 3574 ft 205 kts 197°
2026-04-30 15:03 60.32119 11.15243 2807 ft 197 kts 198°
2026-04-30 15:03 60.29523 11.13743 2274 ft 187 kts 197°
2026-04-30 15:04 60.27167 11.12379 1821 ft 164 kts 198°
2026-04-30 15:04 60.24152 11.10639 1241 ft 148 kts 197°
2026-04-30 15:05 60.21257 11.08975 687 ft 131 kts 199°
2026-04-30 15:06 60.20129 11.08315 682 ft 21 kts 190°
2026-04-30 15:06 60.19888 11.08466 679 ft 20 kts 107°
2026-04-30 15:07 60.19815 11.08981 686 ft 19 kts 106°
2026-04-30 15:07 60.19750 11.09427 684 ft 14 kts 106°
2026-04-30 15:08 60.19698 11.09722 689 ft 8 kts 153°
2026-04-30 15:08 60.19630 11.09944 687 ft 0 kts 107°
2026-04-30 15:09 60.19630 11.09946 687 ft 0 kts 106°